"Pseudo-MPEC" for C150RP2

Created 2019 Oct 11 13:07:09 UT using Find_Orb

Click here for an explanation of pseudo-MPECs

 
 Astrometry: 
     C150RP2  C2019 10 08.41374 04 12 16.69 +20 56 21.9    ~A8Aq 21.0 GVNEOCPG96
     C150RP2  C2019 10 08.41891 04 12 18.05 +20 56 21.2    ~A8Aq 21.1 GVNEOCPG96
     C150RP2  C2019 10 08.42410 04 12 19.43 +20 56 19.7    ~A8Aq 20.8 GVNEOCPG96
     C150RP2  C2019 10 08.42930 04 12 20.82 +20 56 18.3    ~A8Aq 21.2 GVNEOCPG96
     C150RP2  C2019 10 08.45727 04 12 28.22 +20 56 12.1    ~A8BM       VNEOCPI52
     C150RP2  C2019 10 08.45803 04 12 28.48 +20 56 11.7    ~A8BM 20.6 GVNEOCPI52
     C150RP2  C2019 10 08.45880 04 12 28.70 +20 56 11.9    ~A8BM 21.7 GVNEOCPI52
     C150RP2  C2019 10 08.45956 04 12 28.85 +20 56 11.5    ~A8BM 21.1 GVNEOCPI52
     C150RP2 KC2019 10 09?$?IOws,1^u6\o1bP@065D)8v`I^\f(UDH%NExZ16/GL$24/RDEgH21
     C150RP2 KC2019 10 09B(Yh\%I*ZG,9u,70='?dSDQASAstrometry)?RKaZ^%A'[DfkLUAH21
     C150RP2  C2019 10 09.34450 04 16 40.18 +20 52 19.9    ~A98q 21.1 GVNEOCPI52
     C150RP2  C2019 10 09.34700 04 16 40.84 +20 52 19.8    ~A98q 20.6 GVNEOCPI52
     C150RP2  C2019 10 09.34949 04 16 41.58 +20 52 17.6    ~A98q 21.0 GVNEOCPI52
     C150RP2  C2019 10 09.35328 04 16 42.66 +20 52 17.6    ~A98q 20.9 GVNEOCPI52
     C150RP2  C2019 10 10.31736504 21 22.63 +20 47 13.7    ~AA8b 21.2 GVNEOCPH01
     C150RP2  C2019 10 10.32276304 21 24.16 +20 47 12.1    ~AA8b 21.4 GVNEOCPH01
     C150RP2  C2019 10 10.33446604 21 27.49 +20 47 08.5    ~AA8b 21.4 GVNEOCPH01
     C150RP2  C2019 10 10.34194804 21 29.62 +20 47 06.3    ~AA8b 21.2 GVNEOCPH01
     C150RP2 KC2019 10 11XGQONp:\nk#!Nw-S^AlDredacted;3yY1?uclickl+C$,NThere4L01
     C150RP2 KC2019 10 11EHpmmNouKVOcxu'v.[UsQul6sqforB!%VFM'n@U=;ZsDwq?%m':#L01
     C150RP2 KC2019 10 11:TPaD#Xf$7vexplanation%d#s^26ylcxj[=I(yc+yW9O],P#1gTL01
     C150RP2  C2019 10 11.35674 04 26 32.97 +20 40 49.2    ~AB97       VNEOCPI52
     C150RP2  C2019 10 11.35841 04 26 33.39 +20 40 48.7    ~AB97       VNEOCPI52
     C150RP2  C2019 10 11.36008 04 26 34.01 +20 40 47.7    ~AB97 20.4 GVNEOCPI52

Station data:
(G96) Mt. Lemmon Survey  (N32.442754 W110.788720)  US/Arizona.  Observers T.
   A. Pruyne, B. M. Africano, E. J. Christensen, G. A. Farneth, D. C. Fuls,
   A. R. Gibbs, A. D. Grauer, H. Groeller, J. A. Johnson, R. A. Kowalski, S.
   M. Larson, G. J. Leonard, D. Rankin, R. L. Seaman, F. C. Shelly. 1.5-m
   reflector + 10K CCD.
(H01) Magdalena Ridge Observatory, Socorro  (N33.984833 W107.189333)  US/New
   Mexico.  Observers W. H. Ryan, E. V. Ryan. Measurer W. H. Ryan. 2.4-m
   f/8.9 reflector + CCD.
(H21) Astronomical Research Observatory, Westfield  (N39.483057 W87.968270)
   US/Illinois. 0.76-m f/3.0 astrograph + CCD.
(I52) Steward Observatory, Mt. Lemmon Station  (N32.442547 W110.788920)
   US/Arizona.  Observers T. A. Pruyne, B. M. Africano, E. J. Christensen, G.
   A. Farneth, D. C. Fuls, A. R. Gibbs, A. D. Grauer, H. Groeller, J. A.
   Johnson, R. A. Kowalski, S. M. Larson, G. J. Leonard, D. Rankin, R. L.
   Seaman, F. C. Shelly. 1.0-m reflector + CCD.
(L01) Višnjan Observatory, Tičan  (N45.290900 E13.749300)  Croatia.
   Observers K. Korlević, E. Pettarin. Measurer E. Pettarin. 1.0-m f/2.9
   reflector + CCD.

Orbital elements:  C150RP2
   Perihelion 2019 Dec 16.242076 +/- 0.447 TT =  5:48:35 (JD 2458833.742076)
Epoch 2019 Oct 11.0 TT = JDT 2458767.5   Earth MOID: 0.0490   Ma: 0.0081
M 325.06941420 +/- 1.0              (J2000 ecliptic)          AutoNEOCP
n   0.52731719 +/- 0.0118           Peri.  252.95555 +/- 0.49
a   1.51735811 +/- 0.0225           Node   203.79879 +/- 0.14
e   0.3651841 +/- 0.00838           Incl.    4.03343 +/- 0.06
P   1.87/682.69d           H 22.4   G  0.15   U  9.8  
q 0.96324298 +/- 0.00181    Q 2.07147324 +/- 0.044
From 24 observations 2019 Oct. 8-11; mean residual 0".45
Residuals in arcseconds: 
191008 G96  .13+  .56-    191009 H21  .88-  .13+    191010 H01  .12+  .00     
191008 G96  .07-  .09-    191009 H21  .17+  .36+    191010 H01  .24+  .09+    
191008 G96  .07-  .40-    191009 I52  .00   .84+    191011 L01  .10-  .04-    
191008 G96  .04+  .59-    191009 I52  .40-  1.4+    191011 L01  .09+  .53+    
191008 I52  .51-  .09-    191009 I52  .38+  .21-    191011 L01  .13+  .11+    
191008 I52  .30+  .31-    191009 I52  .91+  .75+    191011 I52  .10-  .43-    
191008 I52  .51+  .08+    191010 H01  .06+  .03+    191011 I52  1.0-  .31-    
191008 I52  .23-  .13-    191010 H01  .00   .05+    191011 I52  .83+  .69-    

Ephemerides (geocentric):
Date (UTC) HH   RA              Dec         delta   r     elong  mag " sig PA
---- -- -- --  -------------   -----------  ------ ------ -----  --- ---- ---
2019 10 11 13  04 27 28.179   +20 39 42.61  .24361 1.1677 129.2 21.3 .157 171
2019 10 11 14  04 27 40.902   +20 39 25.28  .24337 1.1675 129.2 21.3 .151 177
2019 10 11 15  04 27 53.639   +20 39 07.84  .24313 1.1673 129.2 21.3 .146   3
2019 10 11 16  04 28 06.393   +20 38 50.29  .24288 1.1671 129.2 21.3 .143   9
2019 10 11 17  04 28 19.162   +20 38 32.62  .24264 1.1669 129.2 21.3 .141  16
2019 10 11 18  04 28 31.948   +20 38 14.85  .24240 1.1667 129.2 21.3 .142  23
2019 10 11 19  04 28 44.749   +20 37 56.96  .24216 1.1664 129.2 21.3 .145  31
2019 10 11 20  04 28 57.566   +20 37 38.97  .24192 1.1662 129.2 21.3 .150  38
2019 10 11 21  04 29 10.399   +20 37 20.86  .24167 1.1660 129.2 21.3 .158  44
2019 10 11 22  04 29 23.248   +20 37 02.64  .24143 1.1658 129.1 21.3 .168  51
2019 10 11 23  04 29 36.113   +20 36 44.30  .24119 1.1656 129.1 21.3 .180  56
2019 10 12 00  04 29 48.994   +20 36 25.85  .24095 1.1654 129.1 21.3 .194  61
2019 10 12 01  04 30 01.891   +20 36 07.29  .24071 1.1652 129.1 21.3 .210  65
2019 10 12 02  04 30 14.804   +20 35 48.62  .24047 1.1649 129.1 21.3 .227  69
2019 10 12 03  04 30 27.733   +20 35 29.83  .24023 1.1647 129.1 21.3 .245  73
2019 10 12 04  04 30 40.678   +20 35 10.93  .23999 1.1645 129.1 21.3 .265  75
2019 10 12 05  04 30 53.639   +20 34 51.91  .23975 1.1643 129.1 21.3 .285  78
2019 10 12 06  04 31 06.616   +20 34 32.78  .23951 1.1641 129.1 21.3 .307  80
2019 10 12 07  04 31 19.610   +20 34 13.53  .23928 1.1639 129.1 21.3 .330  82
2019 10 12 08  04 31 32.620   +20 33 54.16  .23904 1.1637 129.1 21.3 .354  84
2019 10 12 09  04 31 45.646   +20 33 34.68  .23880 1.1634 129.1 21.3 .378  86
2019 10 12 10  04 31 58.688   +20 33 15.09  .23856 1.1632 129.0 21.3 .404  87
2019 10 12 11  04 32 11.746   +20 32 55.38  .23832 1.1630 129.0 21.3 .430  89
2019 10 12 12  04 32 24.821   +20 32 35.55  .23808 1.1628 129.0 21.2 .457  90
2019 10 12 13  04 32 37.912   +20 32 15.60  .23785 1.1626 129.0 21.2 .485  91
2019 10 12 14  04 32 51.019   +20 31 55.54  .23761 1.1624 129.0 21.2 .513  92
2019 10 12 15  04 33 04.143   +20 31 35.36  .23737 1.1622 129.0 21.2 .543  93
2019 10 12 16  04 33 17.283   +20 31 15.06  .23714 1.1620 129.0 21.2 .573  93
2019 10 12 17  04 33 30.439   +20 30 54.64  .23690 1.1617 129.0 21.2 .603  94
2019 10 12 18  04 33 43.612   +20 30 34.11  .23666 1.1615 129.0 21.2 .635  95
2019 10 12 19  04 33 56.801   +20 30 13.45  .23643 1.1613 129.0 21.2 .667  96
2019 10 12 20  04 34 10.007   +20 29 52.68  .23619 1.1611 129.0 21.2 .700  96
2019 10 12 21  04 34 23.229   +20 29 31.78  .23596 1.1609 129.0 21.2 .734  97
2019 10 12 22  04 34 36.468   +20 29 10.77  .23572 1.1607 128.9 21.2 .769  97
2019 10 12 23  04 34 49.723   +20 28 49.64  .23549 1.1605 128.9 21.2 .804  98
2019 10 13 00  04 35 02.995   +20 28 28.38  .23525 1.1603 128.9 21.2 .840  98
2019 10 13 01  04 35 16.283   +20 28 07.01  .23502 1.1600 128.9 21.2 .877  99
2019 10 13 02  04 35 29.588   +20 27 45.51  .23478 1.1598 128.9 21.2 .914  99
2019 10 13 03  04 35 42.910   +20 27 23.89  .23455 1.1596 128.9 21.2 .952  99
2019 10 13 04  04 35 56.248   +20 27 02.15  .23431 1.1594 128.9 21.2 0.99 100
2019 10 13 05  04 36 09.603   +20 26 40.29  .23408 1.1592 128.9 21.2 1.03 100
2019 10 13 06  04 36 22.975   +20 26 18.30  .23385 1.1590 128.9 21.2 1.07 100
2019 10 13 07  04 36 36.364   +20 25 56.20  .23361 1.1588 128.9 21.2 1.11 101
2019 10 13 08  04 36 49.769   +20 25 33.97  .23338 1.1586 128.8 21.2 1.15 101
2019 10 13 09  04 37 03.191   +20 25 11.61  .23315 1.1583 128.8 21.2 1.20 101
2019 10 13 10  04 37 16.629   +20 24 49.13  .23291 1.1581 128.8 21.2 1.24 101
2019 10 13 11  04 37 30.085   +20 24 26.53  .23268 1.1579 128.8 21.2 1.29 101
2019 10 13 12  04 37 43.557   +20 24 03.81  .23245 1.1577 128.8 21.2 1.33 102